TimeEST,TemperatureF,Dew PointF,Humidity,Sea Level PressureIn,VisibilityMPH,Wind Direction,Wind SpeedMPH,Gust SpeedMPH,PrecipitationIn,Events,Conditions,WindDirDegrees,DateUTC
12:04 AM,33.8,32.0,93,29.91,8.0,NE,6.9,-,N/A,,Overcast,50,2003-01-02 05:04:00
12:11 AM,33.8,32.0,93,29.92,8.0,ENE,8.1,-,N/A,,Overcast,60,2003-01-02 05:11:00
12:53 AM,34.0,30.9,89,29.93,10.0,NE,10.4,-,N/A,,Overcast,40,2003-01-02 05:53:00
1:53 AM,34.0,32.0,92,29.93,9.0,ENE,8.1,-,N/A,,Overcast,70,2003-01-02 06:53:00
2:53 AM,34.0,32.0,92,29.92,10.0,NE,9.2,-,N/A,,Overcast,50,2003-01-02 07:53:00
3:31 AM,33.8,30.2,87,29.91,10.0,East,6.9,-,N/A,,Overcast,80,2003-01-02 08:31:00
3:53 AM,34.0,30.9,89,29.92,10.0,East,6.9,-,N/A,,Overcast,80,2003-01-02 08:53:00
4:41 AM,33.8,32.0,93,29.89,10.0,ENE,8.1,-,N/A,,Overcast,70,2003-01-02 09:41:00
4:53 AM,34.0,32.0,92,29.89,9.0,East,9.2,-,N/A,,Overcast,80,2003-01-02 09:53:00
5:53 AM,34.0,32.0,92,29.87,10.0,ENE,9.2,-,N/A,,Overcast,70,2003-01-02 10:53:00
6:53 AM,34.0,32.0,92,29.91,10.0,ESE,4.6,-,N/A,,Overcast,110,2003-01-02 11:53:00
7:53 AM,34.0,33.1,96,29.89,5.0,East,6.9,-,N/A,,Overcast,80,2003-01-02 12:53:00
8:09 AM,33.8,33.8,100,29.88,2.0,ENE,6.9,-,0.00,Rain,Light Rain,70,2003-01-02 13:09:00
8:19 AM,33.8,33.8,100,29.89,2.0,ENE,5.8,-,0.00,Rain,Light Rain,70,2003-01-02 13:19:00
8:33 AM,33.8,33.8,100,29.90,2.0,ENE,4.6,-,0.00,,Overcast,60,2003-01-02 13:33:00
8:53 AM,34.0,33.1,96,29.90,2.0,ENE,4.6,-,0.00,Rain,Light Rain,70,2003-01-02 13:53:00
9:25 AM,33.8,33.8,100,29.90,6.0,Calm,Calm,-,0.00,,Overcast,0,2003-01-02 14:25:00
9:53 AM,34.0,33.1,96,29.91,5.0,NE,4.6,-,0.00,Rain,Light Rain,40,2003-01-02 14:53:00
10:32 AM,35.6,33.8,93,29.91,1.5,NNE,4.6,-,0.00,Rain,Light Rain,30,2003-01-02 15:32:00
10:53 AM,35.1,34.0,96,29.92,1.5,NNE,4.6,-,0.00,,Overcast,30,2003-01-02 15:53:00
11:26 AM,35.6,33.8,93,29.90,4.0,NNE,4.6,-,N/A,,Overcast,30,2003-01-02 16:26:00
11:53 AM,36.0,34.0,93,29.90,8.0,Calm,Calm,-,N/A,,Overcast,0,2003-01-02 16:53:00
12:32 PM,35.6,33.8,93,29.86,9.0,NNE,4.6,-,N/A,,Overcast,20,2003-01-02 17:32:00
12:53 PM,36.0,34.0,93,29.86,10.0,NE,5.8,-,N/A,,Overcast,40,2003-01-02 17:53:00
1:10 PM,35.6,33.8,93,29.85,10.0,NNE,4.6,-,N/A,,Overcast,20,2003-01-02 18:10:00
1:53 PM,37.0,34.0,89,29.85,10.0,Calm,Calm,-,N/A,,Overcast,0,2003-01-02 18:53:00
2:53 PM,37.0,34.0,89,29.85,10.0,NNW,4.6,-,N/A,,Overcast,330,2003-01-02 19:53:00
3:53 PM,37.0,34.0,89,29.86,10.0,North,3.5,-,N/A,,Overcast,10,2003-01-02 20:53:00
4:53 PM,36.0,35.1,97,29.86,6.0,North,6.9,-,N/A,,Overcast,360,2003-01-02 21:53:00
5:00 PM,35.6,35.6,100,29.85,9.0,North,6.9,-,N/A,,Overcast,350,2003-01-02 22:00:00
5:53 PM,36.0,34.0,93,29.87,7.0,North,3.5,-,N/A,,Overcast,360,2003-01-02 22:53:00
6:23 PM,37.4,33.8,87,29.87,10.0,North,4.6,-,0.00,Rain,Light Rain,360,2003-01-02 23:23:00
6:53 PM,36.0,34.0,93,29.89,7.0,NNW,6.9,-,0.00,Rain,Light Rain,330,2003-01-02 23:53:00
7:31 PM,33.8,33.8,100,29.88,1.8,NNW,4.6,-,0.01,Snow,Light Snow,340,2003-01-03 00:31:00
7:53 PM,33.1,33.1,100,29.90,1.2,NNW,3.5,-,0.04,Snow,Light Snow,330,2003-01-03 00:53:00
8:04 PM,32.0,32.0,100,29.89,0.8,NNW,3.5,-,0.02,Snow,Light Snow,330,2003-01-03 01:04:00
8:20 PM,32.0,32.0,100,29.89,1.2,NW,4.6,-,0.04,Snow,Light Snow,320,2003-01-03 01:20:00
8:53 PM,33.1,33.1,100,29.90,1.5,NNW,4.6,-,0.05,Snow,Light Snow,340,2003-01-03 01:53:00
9:08 PM,33.8,33.8,100,29.89,2.0,NNW,5.8,-,0.01,Snow,Light Snow,330,2003-01-03 02:08:00
9:32 PM,33.8,33.8,100,29.89,1.8,NNW,4.6,-,0.01,Snow,Light Snow,330,2003-01-03 02:32:00
9:44 PM,33.8,33.8,100,29.89,2.0,NNW,5.8,-,0.01,Snow,Light Snow,330,2003-01-03 02:44:00
9:53 PM,33.1,33.1,100,29.91,2.0,NNW,5.8,-,0.01,Snow,Light Snow,330,2003-01-03 02:53:00
10:06 PM,33.8,32.0,93,29.89,1.8,NNW,4.6,-,0.01,Snow,Light Snow,330,2003-01-03 03:06:00
10:53 PM,33.1,32.0,96,29.91,2.5,NNW,4.6,-,0.02,Snow,Light Snow,340,2003-01-03 03:53:00
11:04 PM,33.8,32.0,93,29.90,3.0,NNW,4.6,-,0.00,Snow,Light Snow,340,2003-01-03 04:04:00
11:35 PM,33.8,32.0,93,29.89,4.0,North,4.6,-,0.00,Snow,Light Snow,350,2003-01-03 04:35:00
11:43 PM,33.8,32.0,93,29.89,4.0,NNW,4.6,-,0.00,Snow,Light Snow,340,2003-01-03 04:43:00
11:53 PM,33.1,32.0,96,29.90,4.0,North,4.6,-,0.00,Snow,Light Snow,360,2003-01-03 04:53:00